Location: Chamery
(47.2718°N, 3.2409°E)
Time: 05:30:01
(UTC+00:00)

Daily predictions for brighter satellites

Satellite Brightness Start Highest point End
(mag) Time Altitude Azimuth Time Altitude Azimuth Time Altitude Azimuth
USA 267 4.5 00:01:23 10° ENE 00:07:21 40° N 00:13:20 10° WNW
Cosmos 1025 Rocket 4.2 00:03:32 10° NNW 00:06:21 40° NNW 00:06:21 40° NNW
SJ 16-02 3.0 00:09:53 27° ENE 00:09:53 27° ENE 00:12:25 10° NE
Okean 2 Rocket 3.9 00:10:41 48° NNW 00:10:41 48° NNW 00:14:05 10° N
Cosmos 1538 Rocket 4.5 00:06:58 10° NNW 00:11:04 51° WNW 00:11:04 51° WNW
SL-16 R/B 2.3 00:07:50 10° NNW 00:13:33 70° ENE 00:13:48 68° E
Cosmos 2263 Rocket 4.3 00:14:58 14° E 00:15:03 14° E 00:17:40 10° ENE
Nadezhda 4 Rocket 4.1 00:09:29 10° NNW 00:15:37 58° W 00:15:44 58° W
Meteor 2-13 Rocket 4.3 00:10:53 10° N 00:17:03 87° E 00:17:19 82° SSE
Cosmos 2297 Rocket 2.3 00:28:55 65° WNW 00:29:06 65° WNW 00:34:45 10° NNE
Cosmos 158 Rocket 4.2 00:24:29 10° NNW 00:29:53 68° ENE 00:29:59 68° ENE
Cosmos 2344 4.4 00:23:17 10° NW 00:32:52 68° WSW 00:38:10 40° S
Cosmos 1092 Rocket 4.0 00:30:15 10° NNW 00:36:24 64° W 00:36:34 63° WSW
Cosmos 2112 Rocket 4.2 00:31:29 10° NNW 00:36:42 65° ENE 00:36:46 65° ENE
USA 229 DEB 4.0 00:36:45 46° ESE 00:36:56 46° ESE 00:43:23 10° NE
USA 229 4.0 00:36:53 46° ESE 00:37:03 46° ESE 00:43:28 10° NE
Cosmos 2219 3.8 00:41:47 44° WNW 00:42:27 46° NW 00:47:53 10° NNE
Cosmos 2237 Rocket 3.6 00:37:49 10° NW 00:41:12 26° W 00:41:12 26° W
Meteor 1-15 Rocket 4.1 00:43:07 86° W 00:43:08 86° W 00:48:46 10° N
Cosmos 1898 Rocket 4.1 00:43:57 47° E 00:43:57 47° E 00:48:38 10° NNE
Cosmos 1892 Rocket 4.4 00:43:50 10° N 00:47:51 45° ENE 00:47:51 45° ENE
NOSS 3-1 (A) 4.1 00:48:36 37° ESE 00:48:36 37° ESE 00:54:03 10° NE
Meteor 1-24 Rocket 3.8 00:43:20 10° N 00:48:42 63° ENE 00:49:07 60° E
CZ-4 R/B 4.2 00:46:34 10° N 00:51:18 58° WNW 00:51:18 58° WNW
Cosmos 1680 Rocket 3.5 00:46:39 10° NNW 00:51:28 74° NW 00:51:28 74° NW
Cosmos 1461 3.6 00:55:29 58° NNE 00:55:29 58° NNE 00:59:18 10° NE
DELTA 2 DEB (DPAF) 4.4 01:05:02 65° NE 01:05:02 65° NE 01:09:12 10° N
Cosmos 1340 Rocket 4.2 01:07:07 32° ENE 01:07:07 32° ENE 01:10:07 10° NNE
CZ-2D R/B 2.7 01:01:54 10° NNE 01:07:14 48° E 01:08:00 45° SE
Cosmos 1766 4.4 01:11:18 40° NNW 01:11:18 40° NNW 01:13:57 10° N
Timation 1 Rocket 4.4 01:10:12 57° SE 01:10:52 61° ESE 01:16:45 10° NE
SL-16 R/B 2.6 01:09:25 45° SE 01:11:25 75° ENE 01:17:40 10° NNW
Cosmos 1943 3.9 01:07:10 10° NNW 01:12:39 50° ENE 01:16:10 22° SE
Cosmos 1733 4.3 01:14:34 41° NNW 01:14:34 41° NNW 01:17:15 10° N
Cosmos 1626 3.6 01:13:05 10° NNW 01:15:17 33° NNW 01:15:17 33° NNW
Cosmos 1655 Rocket 3.9 01:10:46 10° N 01:17:03 87° E 01:18:26 57° SSE
Cosmos 2227 Rocket 3.3 01:18:31 30° W 01:19:56 35° NW 01:25:06 10° NNE
Cosmos 2292 Rocket 4.4 01:13:41 10° N 01:20:49 81° E 01:22:07 56° SSE
Cosmos 1544 Rocket 4.2 01:22:37 48° E 01:22:45 48° E 01:27:04 10° NNE
Cosmos 1470 3.4 01:24:19 52° ENE 01:24:19 52° ENE 01:27:44 10° NNE
Cosmos 1953 4.1 01:23:54 24° E 01:24:22 25° E 01:27:41 10° NE
Meteor 2-5 Rocket 3.9 01:19:42 10° NNW 01:25:04 51° W 01:25:04 51° W
Meteor 1-22 Rocket 3.9 01:25:04 73° SW 01:25:28 78° WNW 01:30:53 10° N
NPP 3.9 01:20:45 10° NNE 01:26:05 58° ESE 01:27:05 50° SE
Helios 1B rocket 3.8 01:22:56 10° N 01:25:58 29° NW 01:25:58 29° NW
Cosmos 2279 Rocket 4.1 01:29:43 52° WSW 01:30:46 59° WNW 01:36:56 10° N
Cosmos 858 Rocket 4.3 01:32:00 73° SSW 01:32:32 89° ESE 01:37:51 10° NNE
AQUA 4.2 01:29:07 10° NNE 01:33:48 53° E 01:34:26 49° SE
Exosat Rocket 4.3 01:36:53 42° S 01:39:41 75° ESE 01:45:42 10° NNE
Resurs 1-4 Rocket 2.0 01:35:25 10° NNE 01:40:43 90° WNW 01:41:36 63° SSW
Cosmos 1602 Rocket 4.4 01:38:53 10° N 01:43:04 45° ENE 01:44:26 33° ESE
Cosmos 2098 Rocket 3.9 01:38:57 10° NNW 01:44:34 76° W 01:46:32 47° S
NOSS 2-3 (E) 3.5 01:44:49 81° SSW 01:45:01 86° SE 01:50:07 10° NE
Cosmos 2227 4.2 01:44:00 55° S 01:45:18 77° ESE 01:51:05 10° NNE
SJ 16-02 2.7 01:46:52 28° WNW 01:47:03 28° WNW 01:50:52 10° N
USA 267 4.4 01:43:29 10° E 01:49:33 42° NNE 01:55:37 10° NW
NOSS 3-1 (C) 3.6 01:48:09 43° WSW 01:49:54 61° NW 01:56:23 10° NE
SL-16 R/B 3.8 01:53:01 10° NW 01:55:38 19° W 01:55:38 19° W
Cosmos 2263 Rocket 2.1 01:56:40 52° SSW 01:58:05 86° ESE 02:03:41 10° NNE
Cosmos 2298 Rocket 4.5 01:57:57 38° SSE 01:59:39 55° ESE 02:04:52 10° NNE
CZ-4C R/B 4.5 02:05:29 28° NW 02:05:29 28° NW 02:07:39 10° NNW
Cosmos 372 Rocket 3.9 02:04:37 50° SSW 02:06:01 84° ESE 02:11:19 10° NNE
Cosmos 1937 Rocket 4.0 02:07:18 40° WSW 02:08:35 48° WNW 02:13:45 10° NNE
Meteor 1-28 Rocket 4.5 02:06:34 19° SE 02:08:50 39° ENE 02:12:24 10° N
Okean 1-7 Rocket 4.4 02:05:01 10° NNW 02:08:38 34° WNW 02:08:38 34° WNW
NOSS 2-3 (D) 3.8 02:08:30 52° WSW 02:09:24 67° NW 02:14:32 10° NE
COBE Rocket 3.6 02:08:32 55° SSW 02:09:26 72° W 02:14:06 10° NNW
SL-08 R/B 4.1 02:05:26 13° SE 02:09:42 53° ENE 02:14:30 10° N
Cosmos 1809 Rocket 4.3 02:04:19 10° NNW 02:10:27 76° W 02:13:15 34° S
ADEOS II 2.2 02:07:04 10° NNE 02:12:21 71° ESE 02:14:31 36° S
Cosmos 1626 Rocket 3.4 02:08:15 10° NNW 02:12:33 69° W 02:13:03 62° SW
Cosmos 1455 Rocket 3.8 02:12:38 37° W 02:12:53 38° WNW 02:17:04 10° N
Cosmos 2285 Rocket 4.2 02:10:59 31° S 02:14:04 63° ESE 02:20:18 10° NNE
ATLAS CENTAUR R/B 1.6 02:13:46 48° SSE 02:14:17 52° ESE 02:18:07 10° NE
Cosmos 2297 Rocket 4.4 02:10:59 10° WNW 02:14:19 16° NW 02:17:40 10° N
Cosmos 1726 1.9 02:14:19 79° W 02:14:20 79° W 02:18:01 10° N
CZ-4B R/B 3.2 02:10:31 10° NNE 02:15:18 86° WNW 02:16:40 47° SSW
Cosmos 2266 Rocket 4.5 02:15:18 10° NNW 02:21:11 42° W 02:22:57 35° SW
Cosmos 1844 Rocket 4.1 02:17:42 15° SSE 02:21:20 31° ESE 02:26:09 10° NE
GEOS 3 Rocket 3.8 02:20:40 10° NE 02:26:03 68° NW 02:28:25 34° WSW
USA 229 DEB 4.3 02:24:10 25° W 02:27:53 48° NW 02:34:38 10° NE
USA 229 4.2 02:24:18 25° W 02:27:59 48° NW 02:34:43 10° NE
Meteor 1-21 Rocket 4.1 02:23:31 10° NNW 02:29:00 64° W 02:31:40 31° SSW
Meteor 2-21 4.4 02:23:03 10° NNW 02:29:02 63° W 02:32:12 29° SSW
CBERS-1 4.0 02:23:59 10° NNE 02:29:06 76° WNW 02:31:10 37° SSW
Cosmos 468 4.4 02:23:57 10° NNW 02:29:14 79° WSW 02:33:36 15° SSE
Meteor 2-10 4.2 02:27:11 37° SSW 02:29:25 67° WNW 02:35:08 10° N
Cosmos 2084 3.4 02:28:47 48° SSW 02:30:00 83° SE 02:34:28 10° NE
ARIANE 5 R/B 3.0 02:27:32 10° NNE 02:32:44 59° E 02:36:11 21° S
Cosmos 1244 Rocket 4.4 02:28:18 10° N 02:34:40 81° W 02:39:39 17° S
Cosmos 1758 Rocket 3.5 02:31:02 10° N 02:35:23 80° E 02:38:14 21° SSE
Cosmos 1603 4.3 02:32:56 10° NW 02:38:02 34° WSW 02:39:05 31° SW
NOSS 3-1 (A) 3.9 02:36:02 26° WSW 02:39:06 49° NW 02:45:32 10° NE
Cosmos 1340 Rocket 4.3 02:42:44 21° WNW 02:43:05 21° WNW 02:46:07 10° NNW
Cosmos 494 Rocket 4.0 02:39:23 10° NNW 02:44:34 86° ENE 02:49:47 10° SSE
Cosmos 2150 Rocket 4.0 02:42:28 32° SW 02:44:51 71° WNW 02:50:08 10° NNE
CZ-2D R/B 3.3 02:42:22 10° N 02:47:02 29° WNW 02:49:19 22° W
H-2A R/B 3.3 02:43:52 10° SE 02:47:41 39° ENE 02:51:32 10° N
Cosmos 1703 3.2 02:47:00 10° NNW 02:50:55 63° W 02:52:42 30° SSW
S3M 4.4 02:45:35 10° S 02:51:48 66° E 02:58:09 10° NNE
Cosmos 1825 Rocket 3.4 02:49:36 10° N 02:53:57 83° W 02:57:30 15° S
SL-16 R/B 3.8 02:54:31 20° WSW 02:55:38 21° W 03:00:14 10° NW
Cosmos 1943 4.0 02:51:41 10° NW 02:56:25 29° WSW 02:57:52 25° SW
Cosmos 1125 Rocket 3.5 02:54:00 25° SSW 02:57:05 83° WNW 03:02:25 10° NNE
USA 215 3.6 02:52:43 10° ENE 02:59:09 57° SE 03:03:50 19° SSW
IRS-1C 4.2 02:55:07 10° N 03:00:25 66° WNW 03:03:50 22° SSW
Cosmos 1953 3.4 02:59:36 26° W 03:00:38 29° WNW 03:04:14 10° N
IRS-1D 4.3 02:58:45 10° N 03:03:27 38° WNW 03:06:07 23° WSW
Cosmos 1328 4.0 03:00:51 10° NNW 03:04:45 52° W 03:07:02 22° SSW
Cosmos 1953 Rocket 3.6 03:00:55 10° N 03:05:26 87° E 03:09:54 10° S
CZ-2D R/B 3.3 03:06:00 10° NNE 03:10:01 88° W 03:12:51 19° SSW
Resurs 1-4 Rocket 4.0 03:16:45 10° NNW 03:19:49 16° NW 03:22:40 11° W
Cosmos 1606 Rocket 3.7 03:19:24 18° SSW 03:22:39 57° WNW 03:27:04 10° N
Atlas Centaur 2 4.0 03:20:39 14° SSW 03:23:38 19° S 03:28:32 10° SE
NOSS 2-2 (E) 3.3 03:22:46 19° SSW 03:25:12 71° SE 03:29:12 10° NE
NOSS 2-2 (D) 3.6 03:23:30 17° SSW 03:26:06 56° SE 03:29:57 10° NE
CENTAUR R/B 4.2 03:18:47 10° NW 03:26:18 48° NE 03:34:39 10° ESE
IDEFIX/ARIANE 42P 2.6 03:23:54 10° N 03:29:06 69° WNW 03:34:08 11° SSW
USA 267 3.5 03:25:34 10° ESE 03:32:06 77° NNE 03:38:39 10° NW
Meteor 2-15 Rocket 4.5 03:28:29 10° S 03:34:33 87° E 03:40:39 10° N
MSX 3.9 03:29:13 10° NNE 03:35:01 88° W 03:40:48 10° SSW
PSLV R/B 4.3 03:31:26 10° NNE 03:35:44 53° E 03:39:59 10° S
COSMOS 2406 4.3 03:31:24 10° NNW 03:36:57 49° ENE 03:42:26 10° SE
Cosmos 1726 Rocket 3.9 03:33:33 13° SSW 03:37:21 50° WNW 03:41:43 10° N
Cosmos 2228 3.7 03:36:22 15° SW 03:39:39 37° WNW 03:43:47 10° N
Cosmos 2315 Rocket 4.2 03:35:07 10° S 03:41:27 78° E 03:47:51 10° N
ADEOS Rocket 4.5 03:34:42 10° SE 03:42:12 56° ENE 03:49:39 10° N
Cosmos 2263 Rocket 3.8 03:38:39 10° W 03:42:45 21° NW 03:46:52 10° N
Cosmos 1844 3.8 03:37:25 11° SSW 03:43:07 81° WNW 03:48:55 10° NNE
CZ-2C R/B 3.0 03:44:57 10° N 03:48:40 51° WNW 03:52:17 10° SSW
Cosmos 1455 4.0 03:46:07 10° SSE 03:49:37 34° E 03:53:09 10° NNE
Cosmos 1356 Rocket 4.1 03:46:41 12° SW 03:50:14 36° WNW 03:54:03 10° N
ADEOS II 3.7 03:47:50 10° NNW 03:51:31 20° WNW 03:55:10 10° WSW
Cosmos 1300 3.2 03:49:42 10° SSW 03:53:20 42° WNW 03:56:59 10° N
ATLAS CENTAUR R/B 2.9 03:50:08 10° W 03:53:24 23° NW 03:56:32 10° NNE
ERS-2 2.4 03:52:44 10° S 03:56:14 46° W 03:59:47 10° NNW
CZ-4C R/B 3.8 03:56:16 10° SSW 03:59:12 29° W 04:02:14 10° NW
Cosmos 1400 Rocket 4.3 03:57:08 10° SSE 04:00:44 38° E 04:04:22 10° NNE
Cosmos 2278 Rocket 3.4 03:58:52 10° S 04:04:09 42° ESE 04:09:28 10° NE
Cosmos 1844 Rocket 3.1 03:59:40 10° SW 04:05:01 47° NW 04:10:24 10° NNE
SAR-Lupe-4 3.7 04:02:37 10° SSE 04:06:11 84° ENE 04:09:48 10° NNW
Cosmos 1076 Rocket 3.8 04:02:00 10° N 04:06:22 76° E 04:10:44 10° SSE
Cosmos 2251 Rocket 3.8 04:02:05 10° NNW 04:07:30 77° ENE 04:12:52 10° SSE
Cosmos 1833 Rocket 3.4 04:03:45 10° NNW 04:09:22 61° ENE 04:14:57 10° SE
NOSS 2-2 (C) 3.5 04:05:59 10° SW 04:09:30 55° NW 04:13:30 10° NE
Cosmos 1812 Rocket 4.0 04:05:21 10° S 04:09:38 68° E 04:13:59 10° NNE
Lacrosse 5 rocket 3.1 04:06:19 10° SSW 04:10:22 32° SE 04:14:30 10° ENE
NOSS 3-2 (A) 4.1 04:03:35 10° NW 04:11:07 84° SW 04:19:36 10° SE
ARIANE 5 R/B 3.9 04:07:23 10° N 04:11:26 23° WNW 04:15:28 10° WSW
USA 281 3.7 04:05:24 10° NNE 04:11:58 66° ESE 04:18:28 10° SSW
SeaSat 1 2.7 04:09:55 10° NNE 04:14:52 72° ESE 04:19:48 10° SSW
